Flag for Germany Weather past 2 weeks in Hürth, North Rhine-Westphalia, Germany

Now
52 °F

Passing clouds.


Feels Like: 52 °F
Forecast: 50 / 75 °F
Wind: 1 mph from Southeast

Location: Noervenich


UV Index: 3 (Moderate)

Visibility: N/A


Pressure: 30.09 "Hg

Humidity: 94%

Dew point: 50 °F

Location of HürthLocation

Historic Weather in Hürth

°F

Hürth temperature yesterday

Maximum temperature yesterday: 70 °F (at 5:20 PM)
Minimum temperature yesterday: 48 °F (at 2:20 AM)
Average temperature yesterday: 58 °F

Past Weeks' High & Low Weather Summary

 TemperatureHumidityPressure
High70 °F (Apr 20, 3:20 PM)100% (Apr 22, 12:20 AM)30.45 "Hg (Apr 22, 12:20 AM)
Low32 °F (Apr 16, 5:20 AM)26% (Apr 17, 4:20 PM)29.62 "Hg (Apr 21, 1:20 PM)
Average51 °F68%30.05 "Hg
* Reported Apr 9 3:20 AM — Apr 24 3:20 AM, Hürth, Weather by CustomWeather, © 2014

Note: Actual official high and low records may vary slightly from our data, if they occured in-between our weather recording intervals... More about our weather records

Advertising

Historic Weather Conditions — Data for Previous 24 hours

 ConditionsComfort  
Time TempWeatherWind HumidityBarometerVisibility
3:20 AM
Apr 24
52 °FPassing clouds.1 mph94%30.09 "HgN/A
2:20 AM52 °FPassing clouds.1 mph94%30.09 "HgN/A
1:20 AM54 °FPassing clouds.2 mph88%30.09 "HgN/A
12:20 AM54 °FPassing clouds.3 mph88%30.09 "HgN/A
11:20 PM
Apr 23
54 °FPassing clouds.2 mph88%30.12 "HgN/A
10:20 PM55 °FPassing clouds.1 mph88%30.09 "HgN/A
9:20 PM61 °FBroken clouds.7 mph63%30.09 "HgN/A
8:20 PM61 °FScattered showers. Broken clouds.2 mph68%30.07 "HgN/A
7:20 PM64 °FScattered showers. Scattered clouds.6 mph52%30.07 "HgN/A
6:20 PM68 °FThundershowers. Scattered clouds.6 mph46%30.07 "HgN/A
5:20 PM70 °FScattered clouds.5 mph43%30.07 "HgN/A
4:20 PM68 °FScattered clouds.3 mph46%30.07 "HgN/A
3:20 PM68 °FScattered clouds.5 mph46%30.07 "HgN/A
2:20 PM66 °FScattered clouds.7 mph49%30.09 "HgN/A
1:20 PM66 °FScattered clouds.2 mph49%30.09 "HgN/A
12:20 PM64 °FPassing clouds.3 mph56%30.09 "HgN/A
11:20 AM63 °FScattered clouds.3 mph64%30.09 "HgN/A
10:20 AM61 °FPartly sunny.2 mph63%30.09 "HgN/A
9:20 AM55 °FBroken clouds.3 mph82%30.09 "HgN/A
8:20 AM50 °FBroken clouds.2 mph94%30.09 "HgN/A
7:20 AM48 °FScattered showers. Partly cloudy.2 mph94%30.07 "HgN/A
6:20 AM48 °FScattered showers. Partly cloudy.1 mph94%30.07 "HgN/A
5:20 AM48 °FPassing clouds.2 mph94%30.07 "HgN/A
4:20 AM48 °FPartly cloudy.3 mph94%30.04 "HgN/A
Weather by CustomWeather, © 2014

See weather overview